Time,TemperatureF,DewpointF,PressureIn,WindDirection,WindDirectionDegrees,WindSpeedMPH,WindSpeedGustMPH,Humidity,HourlyPrecipIn,Conditions,Clouds,dailyrainin,SoftwareType,DateUTC
2013-01-17 00:22:00,47.0,35.0,30.23,NNW,348,4.0,-999.0,62,-99.99,,,-99.99,,2013-01-17 08:22:00,
2013-01-17 00:32:00,47.0,35.0,30.23,NNW,348,4.0,-999.0,62,-99.99,,,-99.99,,2013-01-17 08:32:00,
2013-01-17 00:43:00,47.0,35.0,30.23,NNW,348,4.0,-999.0,62,-99.99,,,-99.99,,2013-01-17 08:43:00,
2013-01-17 00:52:00,47.0,35.0,30.23,NNW,348,4.0,-999.0,62,-99.99,,,-99.99,,2013-01-17 08:52:00,
2013-01-17 01:02:00,47.0,35.0,30.23,NNW,348,4.0,-999.0,62,-99.99,,,-99.99,,2013-01-17 09:02:00,
2013-01-17 02:22:00,47.0,35.0,30.24,NE,53,4.0,-999.0,64,-99.99,,,-99.99,,2013-01-17 10:22:00,
2013-01-17 02:33:00,47.0,35.0,30.24,NE,53,4.0,-999.0,64,-99.99,,,-99.99,,2013-01-17 10:33:00,
2013-01-17 02:42:00,47.0,35.0,30.24,NE,53,4.0,-999.0,64,-99.99,,,-99.99,,2013-01-17 10:42:00,
2013-01-17 02:52:00,47.0,35.0,30.24,NE,53,4.0,-999.0,64,-99.99,,,-99.99,,2013-01-17 10:52:00,
2013-01-17 03:02:00,47.0,35.0,30.24,NE,53,4.0,-999.0,64,-99.99,,,-99.99,,2013-01-17 11:02:00,
2013-01-17 04:23:00,44.0,34.0,30.22,NNE,22,2.0,-999.0,68,-99.99,,,-99.99,,2013-01-17 12:23:00,
2013-01-17 04:33:00,44.0,34.0,30.22,NNE,22,2.0,-999.0,68,-99.99,,,-99.99,,2013-01-17 12:33:00,
2013-01-17 04:43:00,44.0,34.0,30.22,NNE,22,2.0,-999.0,68,-99.99,,,-99.99,,2013-01-17 12:43:00,
2013-01-17 04:53:00,44.0,34.0,30.22,NNE,22,2.0,-999.0,68,-99.99,,,-99.99,,2013-01-17 12:53:00,
2013-01-17 05:02:00,44.0,34.0,30.22,NNE,22,2.0,-999.0,68,-99.99,,,-99.99,,2013-01-17 13:02:00,
2013-01-17 06:23:00,44.0,37.0,30.19,ENE,63,6.0,-999.0,75,-99.99,,,-99.99,,2013-01-17 14:23:00,
2013-01-17 06:33:00,44.0,37.0,30.19,ENE,63,6.0,-999.0,75,-99.99,,,-99.99,,2013-01-17 14:33:00,
2013-01-17 06:43:00,44.0,37.0,30.19,ENE,63,6.0,-999.0,75,-99.99,,,-99.99,,2013-01-17 14:43:00,
2013-01-17 06:53:00,44.0,37.0,30.19,ENE,63,6.0,-999.0,75,-99.99,,,-99.99,,2013-01-17 14:53:00,
2013-01-17 07:02:00,44.0,37.0,30.19,ENE,63,6.0,-999.0,75,-99.99,,,-99.99,,2013-01-17 15:02:00,
2013-01-17 08:23:00,44.0,35.0,30.21,ENE,74,3.0,-999.0,70,-99.99,,,-99.99,,2013-01-17 16:23:00,
2013-01-17 08:33:00,44.0,35.0,30.21,ENE,74,3.0,-999.0,70,-99.99,,,-99.99,,2013-01-17 16:33:00,
2013-01-17 08:44:00,44.0,35.0,30.21,ENE,74,3.0,-999.0,70,-99.99,,,-99.99,,2013-01-17 16:44:00,
2013-01-17 08:53:00,44.0,35.0,30.21,ENE,74,3.0,-999.0,70,-99.99,,,-99.99,,2013-01-17 16:53:00,
2013-01-17 09:02:00,44.0,35.0,30.21,ENE,74,3.0,-999.0,70,-99.99,,,-99.99,,2013-01-17 17:02:00,
2013-01-17 10:23:00,49.0,37.0,30.23,East,80,7.0,-999.0,62,-99.99,,,-99.99,,2013-01-17 18:23:00,
2013-01-17 10:34:00,49.0,37.0,30.23,East,80,7.0,-999.0,62,-99.99,,,-99.99,,2013-01-17 18:34:00,
2013-01-17 10:44:00,49.0,37.0,30.23,East,80,7.0,-999.0,62,-99.99,,,-99.99,,2013-01-17 18:44:00,
2013-01-17 10:53:00,49.0,37.0,30.23,East,80,7.0,-999.0,62,-99.99,,,-99.99,,2013-01-17 18:53:00,
2013-01-17 11:02:00,49.0,37.0,30.23,East,80,7.0,-999.0,62,-99.99,,,-99.99,,2013-01-17 19:02:00,
2013-01-17 12:23:00,54.0,39.0,30.19,ENE,60,5.0,-999.0,56,-99.99,,,-99.99,,2013-01-17 20:23:00,
2013-01-17 12:33:00,54.0,39.0,30.19,ENE,60,5.0,-999.0,56,-99.99,,,-99.99,,2013-01-17 20:33:00,
2013-01-17 12:43:00,54.0,39.0,30.19,ENE,60,5.0,-999.0,56,-99.99,,,-99.99,,2013-01-17 20:43:00,
2013-01-17 12:53:00,54.0,39.0,30.19,ENE,60,5.0,-999.0,56,-99.99,,,-99.99,,2013-01-17 20:53:00,
2013-01-17 13:02:00,54.0,39.0,30.19,ENE,60,5.0,-999.0,56,-99.99,,,-99.99,,2013-01-17 21:02:00,
2013-01-17 14:23:00,60.0,36.0,30.14,NE,41,6.0,-999.0,40,-99.99,,,-99.99,,2013-01-17 22:23:00,
2013-01-17 14:33:00,60.0,36.0,30.14,NE,41,6.0,-999.0,40,-99.99,,,-99.99,,2013-01-17 22:33:00,
2013-01-17 14:43:00,60.0,36.0,30.14,NE,41,6.0,-999.0,40,-99.99,,,-99.99,,2013-01-17 22:43:00,
2013-01-17 14:52:00,60.0,36.0,30.14,NE,41,6.0,-999.0,40,-99.99,,,-99.99,,2013-01-17 22:52:00,
2013-01-17 15:02:00,60.0,36.0,30.14,NE,41,6.0,-999.0,40,-99.99,,,-99.99,,2013-01-17 23:02:00,
2013-01-17 16:23:00,60.0,34.0,30.13,ENE,71,2.0,-999.0,38,-99.99,,,-99.99,,2013-01-18 00:23:00,
2013-01-17 16:33:00,60.0,34.0,30.13,ENE,71,2.0,-999.0,38,-99.99,,,-99.99,,2013-01-18 00:33:00,
2013-01-17 16:43:00,60.0,34.0,30.13,ENE,71,2.0,-999.0,38,-99.99,,,-99.99,,2013-01-18 00:43:00,
2013-01-17 16:52:00,60.0,34.0,30.13,ENE,71,2.0,-999.0,38,-99.99,,,-99.99,,2013-01-18 00:52:00,
2013-01-17 17:02:00,60.0,34.0,30.13,ENE,71,2.0,-999.0,38,-99.99,,,-99.99,,2013-01-18 01:02:00,
2013-01-17 18:23:00,56.0,36.0,30.14,North,355,2.0,-999.0,47,-99.99,,,-99.99,,2013-01-18 02:23:00,
2013-01-17 18:33:00,56.0,36.0,30.14,North,355,2.0,-999.0,47,-99.99,,,-99.99,,2013-01-18 02:33:00,
2013-01-17 18:43:00,56.0,36.0,30.14,North,355,2.0,-999.0,47,-99.99,,,-99.99,,2013-01-18 02:43:00,
2013-01-17 18:53:00,56.0,36.0,30.14,North,355,2.0,-999.0,47,-99.99,,,-99.99,,2013-01-18 02:53:00,
2013-01-17 19:02:00,56.0,36.0,30.14,North,355,2.0,-999.0,47,-99.99,,,-99.99,,2013-01-18 03:02:00,
2013-01-17 20:22:00,54.0,34.0,30.14,NNW,348,5.0,-999.0,47,-99.99,,,-99.99,,2013-01-18 04:22:00,
2013-01-17 20:33:00,54.0,34.0,30.14,NNW,348,5.0,-999.0,47,-99.99,,,-99.99,,2013-01-18 04:33:00,
2013-01-17 20:42:00,54.0,34.0,30.14,NNW,348,5.0,-999.0,47,-99.99,,,-99.99,,2013-01-18 04:42:00,
2013-01-17 20:53:00,54.0,34.0,30.14,NNW,348,5.0,-999.0,47,-99.99,,,-99.99,,2013-01-18 04:53:00,
2013-01-17 21:03:00,54.0,34.0,30.14,NNW,348,5.0,-999.0,47,-99.99,,,-99.99,,2013-01-18 05:03:00,
2013-01-17 22:22:00,52.0,34.0,30.14,North,360,5.0,-999.0,50,-99.99,,,-99.99,,2013-01-18 06:22:00,
2013-01-17 22:33:00,52.0,34.0,30.14,North,360,5.0,-999.0,50,-99.99,,,-99.99,,2013-01-18 06:33:00,
2013-01-17 22:43:00,52.0,34.0,30.14,North,360,5.0,-999.0,50,-99.99,,,-99.99,,2013-01-18 06:43:00,
2013-01-17 22:52:00,52.0,34.0,30.14,North,360,5.0,-999.0,50,-99.99,,,-99.99,,2013-01-18 06:52:00,
2013-01-17 23:02:00,52.0,34.0,30.14,North,360,5.0,-999.0,50,-99.99,,,-99.99,,2013-01-18 07:02:00,